When you browse on this site, cookies collect data to enhance your experience and personalize the content and advertising you see.
Visit our Privacy Policy to learn more. By continuing to use the site, you agree to this use of cookies and data.
  • In Hungary
  • List of Countries
  • For 7 days
  • Water Temperature
  • Weather Map
  • News
  • Weather Widgets
  • user-avatar
    Login

    Hourly Weather Achalpur

    Today, 6 December, Friday

    Time Temperature Precipitation Wind Pressure Humidity
    00:00 +19°C° 0 mm 2 mps 731 mmHg 37%
    01:00 +19°C° 0 mm 1 mps 731 mmHg 37%
    02:00 +19°C° 0 mm 1 mps 730 mmHg 38%
    03:00 +19°C° 0 mm 1 mps 730 mmHg 37%
    04:00 +18°C° 0 mm 1 mps 730 mmHg 37%
    05:00 +18°C° 0 mm 1 mps 730 mmHg 36%
    06:00 +18°C° 0 mm 2 mps 731 mmHg 35%
    07:00 +20°C° 0 mm 2 mps 732 mmHg 35%
    08:00 +21°C° 0 mm 2 mps 732 mmHg 34%
    09:00 +24°C° 0 mm 2 mps 732 mmHg 33%
    10:00 +25°C° 0 mm 2 mps 732 mmHg 32%
    11:00 +26°C° 0 mm 2 mps 732 mmHg 32%
    12:00 +27°C° 0 mm 2 mps 731 mmHg 31%
    13:00 +28°C° 0 mm 2 mps 730 mmHg 30%
    14:00 +29°C° 0 mm 1 mps 729 mmHg 29%
    15:00 +27°C° 0 mm 1 mps 729 mmHg 32%
    16:00 +26°C° 0 mm 1 mps 729 mmHg 36%
    17:00 +24°C° 0 mm 1 mps 729 mmHg 40%
    18:00 +23°C° 0 mm 1 mps 730 mmHg 42%
    19:00 +22°C° 0 mm 1 mps 730 mmHg 44%
    20:00 +21°C° 0 mm 1 mps 731 mmHg 46%
    21:00 +21°C° 0 mm 1 mps 730 mmHg 47%
    22:00 +20°C° 0 mm 1 mps 730 mmHg 48%
    23:00 +20°C° 0 mm 1 mps 730 mmHg 50%

    Tomorrow, 7 December, Saturday

    Time Temperature Precipitation Wind Pressure Humidity
    00:00 +20°C° 0 mm 1 mps 730 mmHg 50%
    01:00 +19°C° 0 mm 1 mps 729 mmHg 51%
    02:00 +19°C° 0 mm 1 mps 729 mmHg 52%
    03:00 +19°C° 0 mm 1 mps 729 mmHg 53%
    04:00 +17°C° 0 mm 2 mps 729 mmHg 54%
    05:00 +17°C° 0 mm 2 mps 730 mmHg 55%
    06:00 +18°C° 0 mm 2 mps 730 mmHg 53%
    07:00 +19°C° 0 mm 2 mps 731 mmHg 50%
    08:00 +20°C° 0 mm 2 mps 732 mmHg 48%
    09:00 +23°C° 0 mm 2 mps 731 mmHg 43%
    10:00 +25°C° 0 mm 2 mps 731 mmHg 38%
    11:00 +27°C° 0 mm 2 mps 731 mmHg 32%
    12:00 +28°C° 0 mm 2 mps 730 mmHg 31%
    13:00 +28°C° 0 mm 2 mps 729 mmHg 30%
    14:00 +29°C° 0 mm 2 mps 729 mmHg 29%
    15:00 +27°C° 0 mm 1 mps 729 mmHg 33%
    16:00 +26°C° 0 mm 1 mps 729 mmHg 36%
    17:00 +25°C° 0 mm 1 mps 729 mmHg 39%
    18:00 +24°C° 0 mm 1 mps 729 mmHg 42%
    19:00 +23°C° 0 mm 1 mps 730 mmHg 44%
    20:00 +22°C° 0 mm 1 mps 730 mmHg 46%
    21:00 +21°C° 0 mm 1 mps 730 mmHg 47%
    22:00 +21°C° 0 mm 1 mps 730 mmHg 48%
    23:00 +20°C° 0 mm 1 mps 730 mmHg 50%

    Day after tomorrow, 8 December, Sunday

    Time Temperature Precipitation Wind Pressure Humidity
    00:00 +20°C° 0 mm 1 mps 729 mmHg 50%
    01:00 +20°C° 0 mm 1 mps 729 mmHg 51%
    02:00 +20°C° 0 mm 1 mps 729 mmHg 51%
    03:00 +19°C° 0 mm 1 mps 729 mmHg 52%
    04:00 +19°C° 0 mm 1 mps 729 mmHg 52%
    05:00 +19°C° 0 mm 1 mps 729 mmHg 53%
    06:00 +20°C° 0 mm 1 mps 730 mmHg 51%
    07:00 +21°C° 0 mm 1 mps 731 mmHg 48%
    08:00 +22°C° 0 mm 1 mps 731 mmHg 46%
    09:00 +24°C° 0 mm 1 mps 731 mmHg 43%
    10:00 +26°C° 0 mm 1 mps 731 mmHg 40%
    11:00 +28°C° 0 mm 1 mps 731 mmHg 37%
    12:00 +28°C° 0 mm 1 mps 730 mmHg 35%
    13:00 +29°C° 0 mm 1 mps 730 mmHg 34%
    14:00 +30°C° 0 mm 1 mps 729 mmHg 32%
    15:00 +28°C° 0 mm 1 mps 729 mmHg 36%
    16:00 +27°C° 0 mm 1 mps 729 mmHg 40%
    17:00 +25°C° 0 mm 1 mps 729 mmHg 43%
    18:00 +24°C° 0 mm 1 mps 729 mmHg 45%
    19:00 +24°C° 0 mm 1 mps 730 mmHg 47%
    20:00 +23°C° 0 mm 1 mps 730 mmHg 49%
    21:00 +22°C° 0 mm 1 mps 730 mmHg 50%
    22:00 +22°C° 0 mm 1 mps 730 mmHg 51%
    23:00 +21°C° 0 mm 1 mps 730 mmHg 52%

    9 December, Monday

    Time Temperature Precipitation Wind Pressure Humidity
    00:00 +21°C° 0 mm 1 mps 730 mmHg 53%
    01:00 +21°C° 0 mm 1 mps 729 mmHg 54%
    02:00 +20°C° 0 mm 1 mps 729 mmHg 55%
    03:00 +20°C° 0 mm 1 mps 729 mmHg 56%
    04:00 +20°C° 0 mm 1 mps 729 mmHg 57%
    05:00 +19°C° 0 mm 1 mps 729 mmHg 58%
    06:00 +20°C° 0 mm 1 mps 730 mmHg 57%
    07:00 +22°C° 0 mm 1 mps 730 mmHg 55%
    08:00 +23°C° 0 mm 1 mps 731 mmHg 53%
    09:00 +24°C° 0 mm 1 mps 731 mmHg 49%
    10:00 +26°C° 0 mm 1 mps 731 mmHg 44%
    11:00 +28°C° 0 mm 2 mps 731 mmHg 40%
    12:00 +29°C° 0 mm 1 mps 730 mmHg 37%
    13:00 +29°C° 0 mm 1 mps 729 mmHg 35%
    14:00 +30°C° 0 mm 1 mps 729 mmHg 32%
    15:00 +29°C° 0 mm 1 mps 728 mmHg 36%
    16:00 +27°C° 0 mm 1 mps 728 mmHg 40%
    17:00 +26°C° 0 mm 1 mps 728 mmHg 44%
    18:00 +25°C° 0 mm 1 mps 728 mmHg 46%
    19:00 +24°C° 0 mm 2 mps 729 mmHg 47%
    20:00 +23°C° 0 mm 2 mps 729 mmHg 49%
    21:00 +21°C° 0 mm 2 mps 729 mmHg 49%
    22:00 +21°C° 0 mm 2 mps 729 mmHg 49%
    23:00 +21°C° 0 mm 2 mps 729 mmHg 48%

    10 December, Tuesday

    Time Temperature Precipitation Wind Pressure Humidity
    00:00 +20°C° 0 mm 2 mps 729 mmHg 48%
    01:00 +20°C° 0 mm 2 mps 728 mmHg 47%
    02:00 +20°C° 0 mm 2 mps 728 mmHg 46%
    03:00 +20°C° 0 mm 2 mps 728 mmHg 46%
    04:00 +20°C° 0 mm 1 mps 728 mmHg 46%
    05:00 +20°C° 0 mm 1 mps 728 mmHg 46%
    06:00 +21°C° 0 mm 1 mps 729 mmHg 44%
    07:00 +22°C° 0 mm 1 mps 729 mmHg 43%
    08:00 +23°C° 0 mm 1 mps 730 mmHg 41%
    09:00 +25°C° 0 mm 1 mps 730 mmHg 37%
    10:00 +27°C° 0 mm 1 mps 730 mmHg 34%
    11:00 +29°C° 0 mm 1 mps 730 mmHg 30%
    12:00 +30°C° 0 mm 1 mps 729 mmHg 29%
    13:00 +30°C° 0 mm 1 mps 728 mmHg 28%
    14:00 +31°C° 0 mm 2 mps 727 mmHg 27%
    15:00 +29°C° 0 mm 2 mps 727 mmHg 31%
    16:00 +27°C° 0 mm 2 mps 727 mmHg 35%
    17:00 +26°C° 0 mm 2 mps 727 mmHg 39%
    18:00 +25°C° 0 mm 2 mps 727 mmHg 41%
    19:00 +23°C° 0 mm 2 mps 727 mmHg 43%
    20:00 +21°C° 0 mm 2 mps 727 mmHg 45%
    21:00 +21°C° 0 mm 2 mps 727 mmHg 45%
    22:00 +20°C° 0 mm 2 mps 727 mmHg 45%
    23:00 +20°C° 0 mm 2 mps 727 mmHg 45%

    11 December, Wednesday

    Time Temperature Precipitation Wind Pressure Humidity
    00:00 +19°C° 0 mm 2 mps 727 mmHg 45%
    01:00 +20°C° 0 mm 1 mps 727 mmHg 45%
    02:00 +20°C° 0 mm 1 mps 727 mmHg 45%
    03:00 +19°C° 0 mm 1 mps 727 mmHg 45%
    04:00 +19°C° 0 mm 1 mps 727 mmHg 46%
    05:00 +19°C° 0 mm 1 mps 727 mmHg 46%
    06:00 +18°C° 0 mm 0 mps 728 mmHg 44%
    07:00 +19°C° 0 mm 0 mps 728 mmHg 42%
    08:00 +20°C° 0 mm 0 mps 729 mmHg 40%
    09:00 +24°C° 0 mm 1 mps 729 mmHg 36%
    10:00 +27°C° 0 mm 1 mps 729 mmHg 32%
    11:00 +29°C° 0 mm 1 mps 728 mmHg 28%
    12:00 +29°C° 0 mm 1 mps 728 mmHg 26%
    13:00 +30°C° 0 mm 1 mps 727 mmHg 25%
    14:00 +30°C° 0 mm 1 mps 726 mmHg 24%
    15:00 +29°C° 0 mm 1 mps 726 mmHg 27%
    16:00 +27°C° 0 mm 1 mps 726 mmHg 31%
    17:00 +25°C° 0 mm 1 mps 726 mmHg 35%
    18:00 +24°C° 0 mm 1 mps 726 mmHg 36%
    19:00 +23°C° 0 mm 1 mps 727 mmHg 37%
    20:00 +22°C° 0 mm 1 mps 727 mmHg 38%
    21:00 +22°C° 0 mm 1 mps 727 mmHg 38%
    22:00 +22°C° 0 mm 1 mps 727 mmHg 39%
    23:00 +20°C° 0 mm 2 mps 727 mmHg 40%
    Show more